Location: Kellogg
(38.0159°N, 90.0546°W)
Time: 06:45:36
(UTC+00:00)

Vanguard 1 Rocket - Pass Details

Date: 20 September 2024
Orbit: 650 x 4218 km, 34.3° (Epoch: 05 October)

Event Time Altitude Azimuth Distance (km) Brightness Sun altitude
Rises 13:50:05 0° 284° (WNW) 6,892 11.3 23.1°
Reaches altitude 10° 13:54:10 10° 280° (W) 6,242 11.2 23.8°
Maximum altitude 14:15:35 56° 210° (SSW) 4,635 11.3 27.8°
Drops below altitude 10° 14:39:43 10° 140° (SE) 6,879 13.1 32.1°
Sets 14:44:35 0° 136° (SE) 7,589 13.1 32.9°
